This is the latest recevied weather packets stored in our database for station/object K6JWN. If no packets are shown the sender has not sent any weather packets the latest 10 day(s).
| Time | Temp. | Humidity | Pressure | Rain* | Wind** | Luminosity | Snow |
|---|---|---|---|---|---|---|---|
| 1777597337 | 26.67° C | 37% | 1009.7 hPa | 0 mm | - | - | - |
| 1777596737 | 26.67° C | 39% | 1009.8 hPa | 0 mm | - | - | - |
| 1777596137 | 26.67° C | 36% | 1009.8 hPa | 0 mm | - | - | - |
| 1777595537 | 27.22° C | 39% | 1009.7 hPa | 0 mm | - | - | - |
| 1777594937 | 27.22° C | 38% | 1009.8 hPa | 0 mm | - | - | - |
| 1777594337 | 27.78° C | 37% | 1009.7 hPa | 0 mm | - | - | - |
| 1777593737 | 29.44° C | 29% | 1009.8 hPa | 0 mm | - | - | - |
| 1777593137 | 28.89° C | 27% | 1009.8 hPa | 0 mm | - | - | - |
| 1777592537 | 28.89° C | 29% | 1010.1 hPa | 0 mm | - | - | - |
| 1777591937 | 29.44° C | 32% | 1010.2 hPa | 0 mm | - | - | - |
| 1777591337 | 28.89° C | 28% | 1010.3 hPa | 0 mm | - | - | - |
| 1777590737 | 28.33° C | 32% | 1010.4 hPa | 0 mm | - | - | - |
| 1777590137 | 28.33° C | 31% | 1010.5 hPa | 0 mm | - | - | - |
| 1777589537 | 28.33° C | 31% | 1010.7 hPa | 0 mm | - | - | - |
| 1777588937 | 27.78° C | 31% | 1010.8 hPa | 0 mm | - | - | - |
| 1777588337 | 27.78° C | 32% | 1011.1 hPa | 0 mm | - | - | - |
| 1777587737 | 27.78° C | 33% | 1011.2 hPa | 0 mm | - | - | - |
| 1777587137 | 27.22° C | 34% | 1011.3 hPa | 0 mm | - | - | - |
| 1777586537 | 27.22° C | 34% | 1011.5 hPa | 0 mm | - | - | - |
| 1777585937 | 27.22° C | 33% | 1011.6 hPa | 0 mm | - | - | - |
| 1777585337 | 27.22° C | 35% | 1011.7 hPa | 0 mm | - | - | - |
| 1777584737 | 27.22° C | 36% | 1011.8 hPa | 0 mm | - | - | - |
| 1777584137 | 26.67° C | 34% | 1011.8 hPa | 0 mm | - | - | - |
| 1777583537 | 26.11° C | 38% | 1011.8 hPa | 0 mm | - | - | - |
| 1777582937 | 26.11° C | 36% | 1011.9 hPa | 0 mm | - | - | - |
* Rain latest hour (hover to see other rain measurements)
** Current wind speed in m/s (hover to see current wind gust speed)